Year,Month,Day,Hour,Minute,Value (Times are PST for barometer in hPa)
2015,08,29,00,00,1002.80
2015,08,29,00,01,1002.78
2015,08,29,00,02,1002.78
2015,08,29,00,03,1002.78
2015,08,29,00,04,1002.78
2015,08,29,00,05,1002.78
2015,08,29,00,06,1002.78
2015,08,29,00,07,1002.78
2015,08,29,00,08,1002.78
2015,08,29,00,09,1002.78
2015,08,29,00,10,1002.78
2015,08,29,00,11,1002.78
2015,08,29,00,12,1002.78
2015,08,29,00,13,1002.78
2015,08,29,00,14,1002.78
2015,08,29,00,15,1002.37
2015,08,29,00,16,1002.37
2015,08,29,00,17,1002.37
2015,08,29,00,18,1002.37
2015,08,29,00,19,1002.37
2015,08,29,00,20,1002.37
2015,08,29,00,21,1002.37
2015,08,29,00,22,1002.37
2015,08,29,00,23,1002.37
2015,08,29,00,24,1002.37
2015,08,29,00,25,1002.37
2015,08,29,00,26,1002.37
2015,08,29,00,27,1002.37
2015,08,29,00,28,1002.37
2015,08,29,00,29,1002.36
2015,08,29,00,30,1002.20
2015,08,29,00,31,1002.20
2015,08,29,00,32,1002.20
2015,08,29,00,33,1002.20
2015,08,29,00,34,1002.20
2015,08,29,00,35,1002.20
2015,08,29,00,36,1002.20
2015,08,29,00,37,1002.20
2015,08,29,00,38,1002.20
2015,08,29,00,39,1002.20
2015,08,29,00,40,1002.20
2015,08,29,00,41,1002.20
2015,08,29,00,42,1002.20
2015,08,29,00,43,1002.20
2015,08,29,00,44,1002.20
2015,08,29,00,45,1001.69
2015,08,29,00,46,1001.69
2015,08,29,00,47,1001.69
2015,08,29,00,48,1001.69
2015,08,29,00,49,1001.69
2015,08,29,00,50,1001.69
2015,08,29,00,51,1001.69
2015,08,29,00,52,1001.69
2015,08,29,00,53,1001.69
2015,08,29,00,54,1001.69
2015,08,29,00,55,1001.69
2015,08,29,00,56,1001.69
2015,08,29,00,57,1001.69
2015,08,29,00,58,1001.69
2015,08,29,00,59,1001.69
2015,08,29,01,00,1001.36
2015,08,29,01,01,1001.36
2015,08,29,01,02,1001.36
2015,08,29,01,03,1001.36
2015,08,29,01,04,1001.36
2015,08,29,01,05,1001.36
2015,08,29,01,06,1001.36
2015,08,29,01,07,1001.36
2015,08,29,01,08,1001.36
2015,08,29,01,09,1001.36
2015,08,29,01,10,1001.36
2015,08,29,01,11,1001.36
2015,08,29,01,12,1001.36
2015,08,29,01,13,1001.36
2015,08,29,01,14,1001.36
2015,08,29,01,15,1001.02
2015,08,29,01,16,1001.02
2015,08,29,01,17,1001.02
2015,08,29,01,18,1001.02
2015,08,29,01,19,1001.02
2015,08,29,01,20,1001.02
2015,08,29,01,21,1001.02
2015,08,29,01,22,1001.02
2015,08,29,01,23,1001.02
2015,08,29,01,24,1001.02
2015,08,29,01,25,1001.02
2015,08,29,01,26,1001.02
2015,08,29,01,27,1001.02
2015,08,29,01,28,1001.02
2015,08,29,01,29,1001.02
2015,08,29,01,30,1000.58
2015,08,29,01,31,1000.58
2015,08,29,01,32,1000.58
2015,08,29,01,33,1000.58
2015,08,29,01,34,1000.58
2015,08,29,01,35,1000.58
2015,08,29,01,36,1000.58
2015,08,29,01,37,1000.58
2015,08,29,01,38,1000.58
2015,08,29,01,39,1000.58
2015,08,29,01,40,1000.58
2015,08,29,01,41,1000.58
2015,08,29,01,42,1000.58
2015,08,29,01,43,1000.58
2015,08,29,01,44,1000.58
2015,08,29,01,45,1000.24
2015,08,29,01,46,1000.24
2015,08,29,01,47,1000.24
2015,08,29,01,48,1000.24
2015,08,29,01,49,1000.24
2015,08,29,01,50,1000.24
2015,08,29,01,51,1000.24
2015,08,29,01,52,1000.24
2015,08,29,01,53,1000.24
2015,08,29,01,54,1000.24
2015,08,29,01,55,1000.24
2015,08,29,01,56,1000.24
2015,08,29,01,57,1000.24
2015,08,29,01,58,1000.24
2015,08,29,01,59,1000.24
2015,08,29,02,00,1000.37
2015,08,29,02,01,1000.37
2015,08,29,02,02,1000.37
2015,08,29,02,03,1000.37
2015,08,29,02,04,1000.37
2015,08,29,02,05,1000.37
2015,08,29,02,06,1000.37
2015,08,29,02,07,1000.37
2015,08,29,02,08,1000.37
2015,08,29,02,09,1000.37
2015,08,29,02,10,1000.37
2015,08,29,02,11,1000.37
2015,08,29,02,12,1000.37
2015,08,29,02,13,1000.37
2015,08,29,02,14,1000.37
2015,08,29,02,15,1000.10
2015,08,29,02,16,1000.10
2015,08,29,02,17,1000.10
2015,08,29,02,18,1000.10
2015,08,29,02,19,1000.10
2015,08,29,02,20,1000.10
2015,08,29,02,21,1000.10
2015,08,29,02,22,1000.10
2015,08,29,02,23,1000.10
2015,08,29,02,24,1000.10
2015,08,29,02,25,1000.10
2015,08,29,02,26,1000.10
2015,08,29,02,27,1000.10
2015,08,29,02,28,1000.10
2015,08,29,02,29,1000.10
2015,08,29,02,30,999.63
2015,08,29,02,31,999.63
2015,08,29,02,32,999.63
2015,08,29,02,33,999.63
2015,08,29,02,34,999.63
2015,08,29,02,35,999.63
2015,08,29,02,36,999.63
2015,08,29,02,37,999.63
2015,08,29,02,38,999.63
2015,08,29,02,39,999.63
2015,08,29,02,40,999.63
2015,08,29,02,41,999.63
2015,08,29,02,42,999.63
2015,08,29,02,43,999.63
2015,08,29,02,44,999.63
2015,08,29,02,45,999.02
2015,08,29,02,46,999.02
2015,08,29,02,47,999.02
2015,08,29,02,48,999.02
2015,08,29,02,49,999.02
2015,08,29,02,50,999.02
2015,08,29,02,51,999.02
2015,08,29,02,52,999.02
2015,08,29,02,53,999.02
2015,08,29,02,54,999.02
2015,08,29,02,55,999.02
2015,08,29,02,56,999.02
2015,08,29,02,57,999.02
2015,08,29,02,58,999.02
2015,08,29,02,59,999.02
2015,08,29,03,00,998.31
2015,08,29,03,01,998.31
2015,08,29,03,02,998.31
2015,08,29,03,03,998.31
2015,08,29,03,04,998.31
2015,08,29,03,05,998.31
2015,08,29,03,06,998.31
2015,08,29,03,07,998.31
2015,08,29,03,08,998.31
2015,08,29,03,09,998.31
2015,08,29,03,10,998.31
2015,08,29,03,11,998.31
2015,08,29,03,12,998.31
2015,08,29,03,13,998.31
2015,08,29,03,14,998.31
2015,08,29,03,15,998.31
2015,08,29,03,16,998.31
2015,08,29,03,17,998.31
2015,08,29,03,18,998.31
2015,08,29,03,19,998.31
2015,08,29,03,20,998.31
2015,08,29,03,21,998.31
2015,08,29,03,22,998.31
2015,08,29,03,23,998.31
2015,08,29,03,24,998.31
2015,08,29,03,25,998.31
2015,08,29,03,26,998.31
2015,08,29,03,27,998.31
2015,08,29,03,28,998.31
2015,08,29,03,29,998.31
2015,08,29,03,30,998.00
2015,08,29,03,31,998.00
2015,08,29,03,32,998.00
2015,08,29,03,33,998.00
2015,08,29,03,34,998.00
2015,08,29,03,35,998.00
2015,08,29,03,36,998.00
2015,08,29,03,37,998.00
2015,08,29,03,38,998.00
2015,08,29,03,39,998.00
2015,08,29,03,40,998.00
2015,08,29,03,41,998.00
2015,08,29,03,42,998.00
2015,08,29,03,43,998.00
2015,08,29,03,44,998.00
2015,08,29,03,45,997.87
2015,08,29,03,46,997.87
2015,08,29,03,47,997.87
2015,08,29,03,48,997.87
2015,08,29,03,49,997.87
2015,08,29,03,50,997.87
2015,08,29,03,51,997.87
2015,08,29,03,52,997.87
2015,08,29,03,53,997.87
2015,08,29,03,54,997.87
2015,08,29,03,55,997.87
2015,08,29,03,56,997.87
2015,08,29,03,57,997.87
2015,08,29,03,58,997.87
2015,08,29,03,59,997.87
2015,08,29,04,00,997.73
2015,08,29,04,01,997.73
2015,08,29,04,02,997.73
2015,08,29,04,03,997.73
2015,08,29,04,04,997.73
2015,08,29,04,05,997.73
2015,08,29,04,06,997.73
2015,08,29,04,07,997.73
2015,08,29,04,08,997.73
2015,08,29,04,09,997.73
2015,08,29,04,10,997.73
2015,08,29,04,11,997.73
2015,08,29,04,12,997.73
2015,08,29,04,13,997.73
2015,08,29,04,14,997.73
2015,08,29,04,15,996.72
2015,08,29,04,16,996.72
2015,08,29,04,17,996.72
2015,08,29,04,18,996.72
2015,08,29,04,19,996.72
2015,08,29,04,20,996.72
2015,08,29,04,21,996.72
2015,08,29,04,22,996.72
2015,08,29,04,23,996.72
2015,08,29,04,24,996.72
2015,08,29,04,25,996.72
2015,08,29,04,26,996.72
2015,08,29,04,27,996.72
2015,08,29,04,28,996.72
2015,08,29,04,29,996.72
2015,08,29,04,30,996.17
2015,08,29,04,31,996.17
2015,08,29,04,32,996.17
2015,08,29,04,33,996.17
2015,08,29,04,34,996.17
2015,08,29,04,35,996.17
2015,08,29,04,36,996.17
2015,08,29,04,37,996.17
2015,08,29,04,38,996.17
2015,08,29,04,39,996.17
2015,08,29,04,40,996.17
2015,08,29,04,41,996.17
2015,08,29,04,42,996.17
2015,08,29,04,43,996.17
2015,08,29,04,44,996.17
2015,08,29,04,45,995.46
2015,08,29,04,46,995.46
2015,08,29,04,47,995.46
2015,08,29,04,48,995.46
2015,08,29,04,49,995.46
2015,08,29,04,50,995.46
2015,08,29,04,51,995.46
2015,08,29,04,52,995.46
2015,08,29,04,53,995.46
2015,08,29,04,54,995.46
2015,08,29,04,55,995.46
2015,08,29,04,56,995.46
2015,08,29,04,57,995.46
2015,08,29,04,58,995.46
2015,08,29,04,59,995.46
2015,08,29,05,00,995.84
2015,08,29,05,01,995.84
2015,08,29,05,02,995.84
2015,08,29,05,03,995.84
2015,08,29,05,04,995.84
2015,08,29,05,05,995.84
2015,08,29,05,06,995.84
2015,08,29,05,07,995.84
2015,08,29,05,08,995.84
2015,08,29,05,09,995.84
2015,08,29,05,10,995.84
2015,08,29,05,11,995.84
2015,08,29,05,12,995.84
2015,08,29,05,13,995.84
2015,08,29,05,14,995.84
2015,08,29,05,15,995.43
2015,08,29,05,16,995.43
2015,08,29,05,17,995.43
2015,08,29,05,18,995.43
2015,08,29,05,19,995.43
2015,08,29,05,20,995.43
2015,08,29,05,21,995.43
2015,08,29,05,22,995.43
2015,08,29,05,23,995.43
2015,08,29,05,24,995.43
2015,08,29,05,25,995.43
2015,08,29,05,26,995.43
2015,08,29,05,27,995.43
2015,08,29,05,28,995.43
2015,08,29,05,29,995.43
2015,08,29,05,30,995.53
2015,08,29,05,31,995.53
2015,08,29,05,32,995.53
2015,08,29,05,33,995.53
2015,08,29,05,34,995.53
2015,08,29,05,35,995.53
2015,08,29,05,36,995.53
2015,08,29,05,37,995.53
2015,08,29,05,38,995.53
2015,08,29,05,39,995.53
2015,08,29,05,40,995.53
2015,08,29,05,41,995.53
2015,08,29,05,42,995.53
2015,08,29,05,43,995.53
2015,08,29,05,44,995.53
2015,08,29,05,45,995.94
2015,08,29,05,46,995.94
2015,08,29,05,47,995.94
2015,08,29,05,48,995.94
2015,08,29,05,49,995.94
2015,08,29,05,50,995.94
2015,08,29,05,51,995.94
2015,08,29,05,52,995.94
2015,08,29,05,53,995.94
2015,08,29,05,54,995.94
2015,08,29,05,55,995.94
2015,08,29,05,56,995.94
2015,08,29,05,57,995.94
2015,08,29,05,58,995.94
2015,08,29,05,59,995.94
2015,08,29,06,00,997.09
2015,08,29,06,01,997.09
2015,08,29,06,02,997.09
2015,08,29,06,03,997.09
2015,08,29,06,04,997.09
2015,08,29,06,05,997.09
2015,08,29,06,06,997.09
2015,08,29,06,07,997.09
2015,08,29,06,08,997.09
2015,08,29,06,09,997.09
2015,08,29,06,10,997.09
2015,08,29,06,11,997.09
2015,08,29,06,12,997.09
2015,08,29,06,13,997.09
2015,08,29,06,14,997.09
2015,08,29,06,15,996.38
2015,08,29,06,16,996.38
2015,08,29,06,17,996.38
2015,08,29,06,18,996.38
2015,08,29,06,19,996.38
2015,08,29,06,20,996.38
2015,08,29,06,21,996.38
2015,08,29,06,22,996.38
2015,08,29,06,23,996.38
2015,08,29,06,24,996.38
2015,08,29,06,25,996.38
2015,08,29,06,26,996.38
2015,08,29,06,27,996.38
2015,08,29,06,28,996.38
2015,08,29,06,29,996.38
2015,08,29,06,30,996.04
2015,08,29,06,31,996.04
2015,08,29,06,32,996.04
2015,08,29,06,33,996.04
2015,08,29,06,34,996.04
2015,08,29,06,35,996.04
2015,08,29,06,36,996.04
2015,08,29,06,37,996.04
2015,08,29,06,38,996.04
2015,08,29,06,39,996.04
2015,08,29,06,40,996.04
2015,08,29,06,41,996.04
2015,08,29,06,42,996.04
2015,08,29,06,43,996.04
2015,08,29,06,44,996.04
2015,08,29,06,45,995.36
2015,08,29,06,46,995.36
2015,08,29,06,47,995.36
2015,08,29,06,48,995.36
2015,08,29,06,49,995.36
2015,08,29,06,50,995.36
2015,08,29,06,51,995.36
2015,08,29,06,52,995.36
2015,08,29,06,53,995.36
2015,08,29,06,54,995.36
2015,08,29,06,55,995.36
2015,08,29,06,56,995.36
2015,08,29,06,57,995.36
2015,08,29,06,58,995.36
2015,08,29,06,59,995.36
2015,08,29,07,00,994.45
2015,08,29,07,01,994.45
2015,08,29,07,02,994.45
2015,08,29,07,03,994.45
2015,08,29,07,04,994.45
2015,08,29,07,05,994.45
2015,08,29,07,06,994.45
2015,08,29,07,07,994.45
2015,08,29,07,08,994.45
2015,08,29,07,09,994.45
2015,08,29,07,10,994.45
2015,08,29,07,11,994.45
2015,08,29,07,12,994.45
2015,08,29,07,13,994.45
2015,08,29,07,14,994.45
2015,08,29,07,15,993.84
2015,08,29,07,16,993.84
2015,08,29,07,17,993.84
2015,08,29,07,18,993.84
2015,08,29,07,19,993.84
2015,08,29,07,20,993.84
2015,08,29,07,21,993.84
2015,08,29,07,22,993.84
2015,08,29,07,23,993.84
2015,08,29,07,24,993.84
2015,08,29,07,25,993.84
2015,08,29,07,26,993.84
2015,08,29,07,27,993.84
2015,08,29,07,28,993.84
2015,08,29,07,29,993.84
2015,08,29,07,30,993.87
2015,08,29,07,31,993.87
2015,08,29,07,32,993.87
2015,08,29,07,33,993.87
2015,08,29,07,34,993.87
2015,08,29,07,35,993.87
2015,08,29,07,36,993.87
2015,08,29,07,37,993.87
2015,08,29,07,38,993.87
2015,08,29,07,39,993.87
2015,08,29,07,40,993.87
2015,08,29,07,41,993.87
2015,08,29,07,42,993.87
2015,08,29,07,43,993.87
2015,08,29,07,44,993.87
2015,08,29,07,45,993.60
2015,08,29,07,46,993.60
2015,08,29,07,47,993.60
2015,08,29,07,48,993.60
2015,08,29,07,49,993.60
2015,08,29,07,50,993.60
2015,08,29,07,51,993.60
2015,08,29,07,52,993.60
2015,08,29,07,53,993.60
2015,08,29,07,54,993.60
2015,08,29,07,55,993.60
2015,08,29,07,56,993.60
2015,08,29,07,57,993.60
2015,08,29,07,58,993.60
2015,08,29,07,59,993.60
2015,08,29,08,00,993.36
2015,08,29,08,01,993.36
2015,08,29,08,02,993.36
2015,08,29,08,03,993.36
2015,08,29,08,04,993.36
2015,08,29,08,05,993.36
2015,08,29,08,06,993.36
2015,08,29,08,07,993.36
2015,08,29,08,08,993.36
2015,08,29,08,09,993.36
2015,08,29,08,10,993.36
2015,08,29,08,11,993.36
2015,08,29,08,12,993.36
2015,08,29,08,13,993.36
2015,08,29,08,14,993.36
2015,08,29,08,15,994.10
2015,08,29,08,16,994.14
2015,08,29,08,17,994.14
2015,08,29,08,18,994.14
2015,08,29,08,19,994.14
2015,08,29,08,20,994.14
2015,08,29,08,21,994.14
2015,08,29,08,22,994.14
2015,08,29,08,23,994.14
2015,08,29,08,24,994.14
2015,08,29,08,25,994.14
2015,08,29,08,26,994.14
2015,08,29,08,27,994.14
2015,08,29,08,28,994.14
2015,08,29,08,29,994.14
2015,08,29,08,30,993.91
2015,08,29,08,31,993.91
2015,08,29,08,32,993.91
2015,08,29,08,33,993.91
2015,08,29,08,34,993.91
2015,08,29,08,35,993.91
2015,08,29,08,36,993.91
2015,08,29,08,37,993.91
2015,08,29,08,38,993.91
2015,08,29,08,39,993.91
2015,08,29,08,40,993.91
2015,08,29,08,41,993.91
2015,08,29,08,42,993.91
2015,08,29,08,43,993.91
2015,08,29,08,44,993.91
2015,08,29,08,45,994.04
2015,08,29,08,46,994.04
2015,08,29,08,47,994.04
2015,08,29,08,48,994.04
2015,08,29,08,49,994.04
2015,08,29,08,50,994.04
2015,08,29,08,51,994.04
2015,08,29,08,52,994.04
2015,08,29,08,53,994.04
2015,08,29,08,54,994.04
2015,08,29,08,55,994.04
2015,08,29,08,56,994.04
2015,08,29,08,57,994.04
2015,08,29,08,58,994.04
2015,08,29,08,59,994.04
2015,08,29,09,00,993.80
2015,08,29,09,01,993.80
2015,08,29,09,02,993.80
2015,08,29,09,03,993.80
2015,08,29,09,04,993.80
2015,08,29,09,05,993.80
2015,08,29,09,06,993.80
2015,08,29,09,07,993.80
2015,08,29,09,08,993.80
2015,08,29,09,09,993.80
2015,08,29,09,10,993.80
2015,08,29,09,11,993.80
2015,08,29,09,12,993.80
2015,08,29,09,13,993.80
2015,08,29,09,14,993.80
2015,08,29,09,15,993.45
2015,08,29,09,16,993.43
2015,08,29,09,17,993.43
2015,08,29,09,18,993.43
2015,08,29,09,19,993.43
2015,08,29,09,20,993.43
2015,08,29,09,21,993.43
2015,08,29,09,22,993.43
2015,08,29,09,23,993.43
2015,08,29,09,24,993.43
2015,08,29,09,25,993.43
2015,08,29,09,26,993.43
2015,08,29,09,27,993.43
2015,08,29,09,28,993.43
2015,08,29,09,29,993.43
2015,08,29,09,30,993.33
2015,08,29,09,31,993.33
2015,08,29,09,32,993.33
2015,08,29,09,33,993.33
2015,08,29,09,34,993.33
2015,08,29,09,35,993.33
2015,08,29,09,36,993.33
2015,08,29,09,37,993.33
2015,08,29,09,38,993.33
2015,08,29,09,39,993.33
2015,08,29,09,40,993.33
2015,08,29,09,41,993.33
2015,08,29,09,42,993.33
2015,08,29,09,43,993.33
2015,08,29,09,44,993.33
2015,08,29,09,45,993.43
2015,08,29,09,46,993.43
2015,08,29,09,47,993.43
2015,08,29,09,48,993.43
2015,08,29,09,49,993.43
2015,08,29,09,50,993.43
2015,08,29,09,51,993.43
2015,08,29,09,52,993.43
2015,08,29,09,53,993.43
2015,08,29,09,54,993.43
2015,08,29,09,55,993.43
2015,08,29,09,56,993.43
2015,08,29,09,57,993.43
2015,08,29,09,58,993.43
2015,08,29,09,59,993.43
2015,08,29,10,00,992.92
2015,08,29,10,01,992.92
2015,08,29,10,02,992.92
2015,08,29,10,03,992.92
2015,08,29,10,04,992.92
2015,08,29,10,05,992.92
2015,08,29,10,06,992.92
2015,08,29,10,07,992.92
2015,08,29,10,08,992.92
2015,08,29,10,09,992.92
2015,08,29,10,10,992.92
2015,08,29,10,11,992.92
2015,08,29,10,12,992.92
2015,08,29,10,13,992.92
2015,08,29,10,14,992.92
2015,08,29,10,15,992.69
2015,08,29,10,16,992.69
2015,08,29,10,17,992.69
2015,08,29,10,18,992.69
2015,08,29,10,19,992.69
2015,08,29,10,20,992.69
2015,08,29,10,21,992.69
2015,08,29,10,22,992.69
2015,08,29,10,23,992.69
2015,08,29,10,24,992.69
2015,08,29,10,25,992.69
2015,08,29,10,26,992.69
2015,08,29,10,27,992.69
2015,08,29,10,28,992.69
2015,08,29,10,29,992.69
2015,08,29,10,30,992.14
2015,08,29,10,31,992.14
2015,08,29,10,32,992.14
2015,08,29,10,33,992.14
2015,08,29,10,34,992.14
2015,08,29,10,35,992.14
2015,08,29,10,36,992.14
2015,08,29,10,37,992.14
2015,08,29,10,38,992.14
2015,08,29,10,39,992.14
2015,08,29,10,40,992.14
2015,08,29,10,41,992.14
2015,08,29,10,42,992.14
2015,08,29,10,43,992.14
2015,08,29,10,44,992.14
2015,08,29,10,45,992.25
2015,08,29,10,46,992.25
2015,08,29,10,47,992.25
2015,08,29,10,48,992.25
2015,08,29,10,49,992.25
2015,08,29,10,50,992.25
2015,08,29,10,51,992.25
2015,08,29,10,52,992.25
2015,08,29,10,53,992.25
2015,08,29,10,54,992.25
2015,08,29,10,55,992.25
2015,08,29,10,56,992.25
2015,08,29,10,57,992.25
2015,08,29,10,58,992.25
2015,08,29,10,59,992.25
2015,08,29,11,00,992.21
2015,08,29,11,01,992.21
2015,08,29,11,02,992.21
2015,08,29,11,03,992.21
2015,08,29,11,04,992.21
2015,08,29,11,05,992.21
2015,08,29,11,06,992.21
2015,08,29,11,07,992.21
2015,08,29,11,08,992.21
2015,08,29,11,09,992.21
2015,08,29,11,10,992.21
2015,08,29,11,11,992.21
2015,08,29,11,12,992.21
2015,08,29,11,13,992.21
2015,08,29,11,14,992.21
2015,08,29,11,15,991.91
2015,08,29,11,16,991.91
2015,08,29,11,17,991.91
2015,08,29,11,18,991.91
2015,08,29,11,19,991.91
2015,08,29,11,20,991.91
2015,08,29,11,21,991.91
2015,08,29,11,22,991.91
2015,08,29,11,23,991.91
2015,08,29,11,24,991.91
2015,08,29,11,25,991.91
2015,08,29,11,26,991.91
2015,08,29,11,27,991.91
2015,08,29,11,28,991.91
2015,08,29,11,29,991.91
2015,08,29,11,30,992.20
2015,08,29,11,31,992.21
2015,08,29,11,32,992.21
2015,08,29,11,33,992.21
2015,08,29,11,34,992.21
2015,08,29,11,35,992.21
2015,08,29,11,36,992.21
2015,08,29,11,37,992.21
2015,08,29,11,38,992.21
2015,08,29,11,39,992.21
2015,08,29,11,40,992.21
2015,08,29,11,41,992.21
2015,08,29,11,42,992.21
2015,08,29,11,43,992.21
2015,08,29,11,44,992.21
2015,08,29,11,45,992.28
2015,08,29,11,46,992.28
2015,08,29,11,47,992.28
2015,08,29,11,48,992.28
2015,08,29,11,49,992.28
2015,08,29,11,50,992.28
2015,08,29,11,51,992.28
2015,08,29,11,52,992.28
2015,08,29,11,53,992.28
2015,08,29,11,54,992.28
2015,08,29,11,55,992.28
2015,08,29,11,56,992.28
2015,08,29,11,57,992.28
2015,08,29,11,58,992.28
2015,08,29,11,59,992.28
2015,08,29,12,00,993.09
2015,08,29,12,01,993.09
2015,08,29,12,02,993.09
2015,08,29,12,03,993.09
2015,08,29,12,04,993.09
2015,08,29,12,05,993.09
2015,08,29,12,06,993.09
2015,08,29,12,07,993.09
2015,08,29,12,08,993.09
2015,08,29,12,09,993.09
2015,08,29,12,10,993.09
2015,08,29,12,11,993.09
2015,08,29,12,12,993.09
2015,08,29,12,13,993.09
2015,08,29,12,14,993.09
2015,08,29,12,15,993.91
2015,08,29,12,16,993.91
2015,08,29,12,17,993.91
2015,08,29,12,18,993.91
2015,08,29,12,19,993.91
2015,08,29,12,20,993.91
2015,08,29,12,21,993.91
2015,08,29,12,22,993.91
2015,08,29,12,23,993.91
2015,08,29,12,24,993.91
2015,08,29,12,25,993.91
2015,08,29,12,26,993.91
2015,08,29,12,27,993.91
2015,08,29,12,28,993.91
2015,08,29,12,29,993.91
2015,08,29,12,30,994.41
2015,08,29,12,31,994.41
2015,08,29,12,32,994.41
2015,08,29,12,33,994.41
2015,08,29,12,34,994.41
2015,08,29,12,35,994.41
2015,08,29,12,36,994.41
2015,08,29,12,37,994.41
2015,08,29,12,38,994.41
2015,08,29,12,39,994.41
2015,08,29,12,40,994.41
2015,08,29,12,41,994.41
2015,08,29,12,42,994.41
2015,08,29,12,43,994.41
2015,08,29,12,44,994.41
2015,08,29,12,45,994.90
2015,08,29,12,46,994.92
2015,08,29,12,47,994.92
2015,08,29,12,48,994.92
2015,08,29,12,49,994.92
2015,08,29,12,50,994.92
2015,08,29,12,51,994.92
2015,08,29,12,52,994.92
2015,08,29,12,53,994.92
2015,08,29,12,54,994.92
2015,08,29,12,55,994.92
2015,08,29,12,56,994.92
2015,08,29,12,57,994.92
2015,08,29,12,58,994.92
2015,08,29,12,59,994.92
2015,08,29,13,00,995.47
2015,08,29,13,01,995.50
2015,08,29,13,02,995.50
2015,08,29,13,03,995.50
2015,08,29,13,04,995.50
2015,08,29,13,05,995.50
2015,08,29,13,06,995.50
2015,08,29,13,07,995.50
2015,08,29,13,08,995.50
2015,08,29,13,09,995.50
2015,08,29,13,10,995.50
2015,08,29,13,11,995.50
2015,08,29,13,12,995.50
2015,08,29,13,13,995.50
2015,08,29,13,14,995.50
2015,08,29,13,15,995.94
2015,08,29,13,16,995.94
2015,08,29,13,17,995.94
2015,08,29,13,18,995.94
2015,08,29,13,19,995.94
2015,08,29,13,20,995.94
2015,08,29,13,21,995.94
2015,08,29,13,22,995.94
2015,08,29,13,23,995.94
2015,08,29,13,24,995.94
2015,08,29,13,25,995.94
2015,08,29,13,26,995.94
2015,08,29,13,27,995.94
2015,08,29,13,28,995.94
2015,08,29,13,29,995.94
2015,08,29,13,30,996.75
2015,08,29,13,31,996.75
2015,08,29,13,32,996.75
2015,08,29,13,33,996.75
2015,08,29,13,34,996.75
2015,08,29,13,35,996.75
2015,08,29,13,36,996.75
2015,08,29,13,37,996.75
2015,08,29,13,38,996.75
2015,08,29,13,39,996.75
2015,08,29,13,40,996.75
2015,08,29,13,41,996.75
2015,08,29,13,42,996.75
2015,08,29,13,43,996.75
2015,08,29,13,44,996.75
2015,08,29,13,45,997.12
2015,08,29,13,46,997.12
2015,08,29,13,47,997.12
2015,08,29,13,48,997.12
2015,08,29,13,49,997.12
2015,08,29,13,50,997.12
2015,08,29,13,51,997.12
2015,08,29,13,52,997.12
2015,08,29,13,53,997.12
2015,08,29,13,54,997.12
2015,08,29,13,55,997.12
2015,08,29,13,56,997.12
2015,08,29,13,57,997.12
2015,08,29,13,58,997.12
2015,08,29,13,59,997.12
2015,08,29,14,00,997.96
2015,08,29,14,01,998.00
2015,08,29,14,02,998.00
2015,08,29,14,03,998.00
2015,08,29,14,04,998.00
2015,08,29,14,05,998.00
2015,08,29,14,06,998.00
2015,08,29,14,07,998.00
2015,08,29,14,08,998.00
2015,08,29,14,09,998.00
2015,08,29,14,10,998.00
2015,08,29,14,11,998.00
2015,08,29,14,12,998.00
2015,08,29,14,13,998.00
2015,08,29,14,14,998.00
2015,08,29,14,15,998.44
2015,08,29,14,16,998.44
2015,08,29,14,17,998.44
2015,08,29,14,18,998.44
2015,08,29,14,19,998.44
2015,08,29,14,20,998.44
2015,08,29,14,21,998.44
2015,08,29,14,22,998.44
2015,08,29,14,23,998.44
2015,08,29,14,24,998.44
2015,08,29,14,25,998.44
2015,08,29,14,26,998.44
2015,08,29,14,27,998.44
2015,08,29,14,28,998.44
2015,08,29,14,29,998.44
2015,08,29,14,30,998.57
2015,08,29,14,31,998.58
2015,08,29,14,32,998.58
2015,08,29,14,33,998.58
2015,08,29,14,34,998.58
2015,08,29,14,35,998.58
2015,08,29,14,36,998.58
2015,08,29,14,37,998.58
2015,08,29,14,38,998.58
2015,08,29,14,39,998.58
2015,08,29,14,40,998.58
2015,08,29,14,41,998.58
2015,08,29,14,42,998.58
2015,08,29,14,43,998.58
2015,08,29,14,44,998.58
2015,08,29,14,45,999.02
2015,08,29,14,46,999.02
2015,08,29,14,47,999.02
2015,08,29,14,48,999.02
2015,08,29,14,49,999.02
2015,08,29,14,50,999.02
2015,08,29,14,51,999.02
2015,08,29,14,52,999.02
2015,08,29,14,53,999.02
2015,08,29,14,54,999.02
2015,08,29,14,55,999.02
2015,08,29,14,56,999.02
2015,08,29,14,57,999.02
2015,08,29,14,58,999.02
2015,08,29,14,59,999.02
2015,08,29,15,00,999.28
2015,08,29,15,01,999.29
2015,08,29,15,02,999.29
2015,08,29,15,03,999.29
2015,08,29,15,04,999.29
2015,08,29,15,05,999.29
2015,08,29,15,06,999.29
2015,08,29,15,07,999.29
2015,08,29,15,08,999.29
2015,08,29,15,09,999.29
2015,08,29,15,10,999.29
2015,08,29,15,11,999.29
2015,08,29,15,12,999.29
2015,08,29,15,13,999.29
2015,08,29,15,14,999.29
2015,08,29,15,15,999.53
2015,08,29,15,16,999.53
2015,08,29,15,17,999.53
2015,08,29,15,18,999.53
2015,08,29,15,19,999.53
2015,08,29,15,20,999.53
2015,08,29,15,21,999.53
2015,08,29,15,22,999.53
2015,08,29,15,23,999.53
2015,08,29,15,24,999.53
2015,08,29,15,25,999.53
2015,08,29,15,26,999.53
2015,08,29,15,27,999.53
2015,08,29,15,28,999.53
2015,08,29,15,29,999.53
2015,08,29,15,30,999.66
2015,08,29,15,31,999.66
2015,08,29,15,32,999.66
2015,08,29,15,33,999.66
2015,08,29,15,34,999.66
2015,08,29,15,35,999.66
2015,08,29,15,36,999.66
2015,08,29,15,37,999.66
2015,08,29,15,38,999.66
2015,08,29,15,39,999.66
2015,08,29,15,40,999.66
2015,08,29,15,41,999.66
2015,08,29,15,42,999.66
2015,08,29,15,43,999.66
2015,08,29,15,44,999.66
2015,08,29,15,45,1000.12
2015,08,29,15,46,1000.14
2015,08,29,15,47,1000.14
2015,08,29,15,48,1000.14
2015,08,29,15,49,1000.14
2015,08,29,15,50,1000.14
2015,08,29,15,51,1000.14
2015,08,29,15,52,1000.14
2015,08,29,15,53,1000.14
2015,08,29,15,54,1000.14
2015,08,29,15,55,1000.14
2015,08,29,15,56,1000.14
2015,08,29,15,57,1000.14
2015,08,29,15,58,1000.14
2015,08,29,15,59,1000.14
2015,08,29,16,00,1000.30
2015,08,29,16,01,1000.31
2015,08,29,16,02,1000.31
2015,08,29,16,03,1000.31
2015,08,29,16,04,1000.31
2015,08,29,16,05,1000.31
2015,08,29,16,06,1000.31
2015,08,29,16,07,1000.31
2015,08,29,16,08,1000.31
2015,08,29,16,09,1000.31
2015,08,29,16,10,1000.31
2015,08,29,16,11,1000.31
2015,08,29,16,12,1000.31
2015,08,29,16,13,1000.31
2015,08,29,16,14,1000.31
2015,08,29,16,15,1000.66
2015,08,29,16,16,1000.68
2015,08,29,16,17,1000.68
2015,08,29,16,18,1000.68
2015,08,29,16,19,1000.68
2015,08,29,16,20,1000.68
2015,08,29,16,21,1000.68
2015,08,29,16,22,1000.68
2015,08,29,16,23,1000.68
2015,08,29,16,24,1000.68
2015,08,29,16,25,1000.68
2015,08,29,16,26,1000.68
2015,08,29,16,27,1000.68
2015,08,29,16,28,1000.68